Burnsville, North Carolina, United States (28714)
Lat: 35.92N, Lon: 82.3W
Wx Zone: NCZ049
Local Info
Past Weather Observations for Monday, May 23, 2016

NOTE: This archive is for the closest National Weather Service station to Burnsville. Information may differ from the station used for current weather conditions.

Click here for Long-term Archive

Time Weather Temperature Dewpoint Humidity Pressure Winds Precip Visibility
23:54
Clear
55°F / 13°C 50°F / 10°C 82% 30.12 in
(1020 mb)
Calm - 10SM
22:54
Partly Cloudy
55°F / 13°C 50°F / 10°C 82% 30.12 in
(1020 mb)
S 3.5 mph
(S 6 kph)
- 10SM
21:54
Clear
61°F / 16°C 48°F / 9°C 63% 30.12 in
(1020 mb)
Calm - 10SM
20:54
Overcast
63°F / 17°C 48°F / 9°C 59% 30.09 in
(1019 mb)
Calm - 10SM
19:54
Overcast
64°F / 18°C 48°F / 9°C 56% 30.06 in
(1018 mb)
SSE 4.6 mph
(SSE 7 kph)
- 10SM
18:54
Overcast
68°F / 20°C 45°F / 7°C 43% 30.06 in
(1018 mb)
ESE 4.6 mph
(ESE 7 kph)
- 10SM
17:54
Clear
72°F / 22°C 43°F / 6°C 36% 30.04 in
(1017 mb)
N 10.4 mph
(N 17 kph)
- 10SM
16:54
Clear
72°F / 22°C 43°F / 6°C 36% 30.01 in
(1016 mb)
NNW 13.8 mph
(NNW 22 kph)
- 10SM
15:54
Clear
73°F / 23°C 43°F / 6°C 33% 30.04 in
(1017 mb)
N 13.8 mph
(N 22 kph)
- 10SM
14:54
Partly Cloudy
72°F / 22°C 43°F / 6°C 36% 30.04 in
(1017 mb)
N 11.5 mph
(N 19 kph)
- 10SM
13:54
Clear
72°F / 22°C 43°F / 6°C 36% 30.04 in
(1017 mb)
NW 15 mph
(NW 24 kph)
- 10SM
12:54
Partly Cloudy
70°F / 21°C 39°F / 4°C 33% 30.04 in
(1017 mb)
N 9.2 mph
(N 15 kph)
- 10SM
11:54
Partly Cloudy
68°F / 20°C 43°F / 6°C 40% 30.04 in
(1017 mb)
NNW 16.1 mph
(NNW 26 kph)
- 10SM
10:54
Clear
66°F / 19°C 43°F / 6°C 43% 30.04 in
(1017 mb)
N 11.5 mph
(N 19 kph)
- 10SM
09:54
Clear
64°F / 18°C 45°F / 7°C 49% 30.04 in
(1017 mb)
N 19.6 mph
(N 32 kph)
- 10SM
08:54
Clear
61°F / 16°C 48°F / 9°C 63% 30.06 in
(1018 mb)
NNW 11.5 mph
(NNW 19 kph)
- 10SM
07:54
Clear
54°F / 12°C 48°F / 9°C 82% 30.06 in
(1018 mb)
N 5.8 mph
(N 9 kph)
- 10SM
07:39
Partly Cloudy
52°F / 11°C 48°F / 9°C 88% 30.06 in
(1018 mb)
Calm - 8SM
07:22
Overcast
Fog And Mist
50°F / 10°C 48°F / 9°C 94% 30.06 in
(1018 mb)
Calm - 3SM
07:14
Overcast
Fog And Mist
48°F / 9°C 46°F / 8°C 94% 30.06 in
(1018 mb)
Calm - 1 3/4SM
07:06
Overcast
Fog And Mist
48°F / 9°C 48°F / 9°C 100% 30.06 in
(1018 mb)
Calm - 1 1/4SM
06:54
Overcast
Fog And Mist
48°F / 9°C 46°F / 8°C 94% 30.06 in
(1018 mb)
Calm - 3/4SM
06:52
Overcast
Fog
48°F / 9°C 46°F / 8°C 94% 30.06 in
(1018 mb)
Calm - 1/2SM
06:41
Obscured
Fog
46°F / 8°C 46°F / 8°C 100% 30.04 in
(1017 mb)
Calm - 1/4SM
06:28
Mostly Cloudy
Fog And Mist
46°F / 8°C 46°F / 8°C 100% 30.04 in
(1017 mb)
Calm - 3/4SM
06:19
Mostly Cloudy
Fog And Mist
46°F / 8°C 45°F / 7°C 93% 30.04 in
(1017 mb)
Calm - 1 1/4SM
06:16
Mostly Cloudy
Fog And Mist
46°F / 8°C 45°F / 7°C 93% 30.04 in
(1017 mb)
Calm - 2 1/2SM
05:58
Clear
46°F / 8°C 45°F / 7°C 93% 30.04 in
(1017 mb)
SE 3.5 mph
(SE 6 kph)
- 10SM
05:54
Obscured
Fog
46°F / 8°C 45°F / 7°C 93% 30.04 in
(1017 mb)
Calm - 1/4SM
05:35
Obscured
Fog
46°F / 8°C 45°F / 7°C 93% 30.04 in
(1017 mb)
Calm - M1/4SM
05:21
Obscured
Fog
46°F / 8°C 45°F / 7°C 93% 30.04 in
(1017 mb)
Calm - 1/4SM
05:14
Obscured
Fog And Mist
45°F / 7°C 43°F / 6°C 93% 30.04 in
(1017 mb)
S 3.5 mph
(S 6 kph)
- 3/4SM
05:12
Partly Cloudy
Fog And Mist
45°F / 7°C 43°F / 6°C 93% 30.04 in
(1017 mb)
S 4.6 mph
(S 7 kph)
- 1 1/2SM
04:54
Clear
46°F / 8°C 45°F / 7°C 93% 30.01 in
(1016 mb)
Calm - 10SM
03:54
Clear
48°F / 9°C 45°F / 7°C 87% 30.01 in
(1016 mb)
Calm - 9SM
02:54
Clear
50°F / 10°C 46°F / 8°C 88% 29.98 in
(1015 mb)
Calm - 10SM
01:54
Clear
52°F / 11°C 48°F / 9°C 88% 29.98 in
(1015 mb)
Calm - 10SM
00:54
Partly Cloudy
54°F / 12°C 48°F / 9°C 82% 30.01 in
(1016 mb)
Calm 0.01 in
(0.25 mm)
10SM
Time Weather Temperature Dewpoint Humidity Pressure Winds Precip Visibility


Weather for websites

WeatherForYou.com, LLC is not responsible for any damages or problems caused by this service. Current weather conditions are obtained from the closest station including government and personal stations which may have varying degrees of accuracy. Weather forecasts are derived from the NOAA NDFD. Like all things, this site belongs to Jesus Christ... He just trusts us to maintain it. If you have any questions or comments email webmaster@weatherforyou.com

Copyright © 2016, WeatherForYou.com LLC. All rights reserved.